Location: Arpaise
(41.0333°N, 14.7333°E)
Time: 22:11:01
(UTC+00:00)

Cosmos 846 Rocket - Pass Details

Date: 17 January 2021
Orbit: 948 x 991 km, 82.9° (Epoch: 06 March)

Event Time Altitude Azimuth Distance (km) Brightness Sun altitude
Rises 19:04:04 0° 192° (SSW) 3,677 8.6 -34.3°
Reaches altitude 10° 19:06:35 10° 195° (SSW) 2,728 7.9 -34.8°
Enters shadow 19:08:26 21° 198° (SSW) 2,062 7.3 -35.2°
